Find Starlink 34640

NORAD ID: 65092 Int'l Des: 2025-167 Owner: SPXS Country: US Constellation: starlink operational
LEOCIRCULAR

現在のビュー

3D地球を読み込み中...

About Starlink 34640

Starlink 34640 (NORAD 65092) is a starlink constellation satellite (v2 mini) launched Aug 4, 2025 by SPXS of US. It operates in LEO, CIRCULAR orbit with a mass of 575.00 kg.

次回通過

Passes for default location (London). Set your location on the main map for personalized predictions.

高度履歴

Loading altitude history...

軌道要素

1 65092U 25167Q 26263.21161021 .00013153 00000-0 43452-3 0 9990
2 65092 53.1594 203.0050 0001857 85.7770 274.3443 15.31724423 63262
Epoch: Sep 20, 2026 • Age: 17 hours

現在のステータス

高度 474.3 km
遠地点 / 近地点 N/A
速度 7.63 km/s
衛星直下点 -12.81°S, 143.41°W
打ち上げ日 Aug 4, 2025
運用期間 1.1 years
タイプ internet

技術仕様

分類 Payload
質量 575.00 kg
乾燥質量 530.00 kg
長さ 0.30 m
スパン 29.00 m
形状 ? Box + pan
製造者 SPXS
バスタイプ Starlink V2MO
フェーズステータス In Orbit
所有者/国 SPXS/US

Most Searched